Flag for Germany Weather past 2 weeks in Paderborn, North Rhine-Westphalia, Germany

Now
37 °F

Partly sunny.


Feels Like: 27 °F
Forecast: 32 / 36 °F
Wind: 18 mph from Southwest

Location: Paderborn / Lippstadt

Current Time: Jan 28, 2015 at 10:49:53 AM

Latest Report: Jan 28, 2015 at 10:20 AM


Visibility: N/A

Pressure: 29.86 "Hg

Humidity: 87%

Dew point: 34 °F

Location of PaderbornLocation

Historic Weather in Paderborn — Graph

°F

Paderborn temperature yesterday

Maximum temperature yesterday: 37 °F (at 12:50 PM)
Minimum temperature yesterday: 32 °F (at 6:50 AM)
Average temperature yesterday: 35 °F

Past Weeks' High & Low Weather Summary

 TemperatureHumidityPressure
High52 °F (Jan 13, 12:50 PM)100% (Jan 17, 6:20 AM)30.36 "Hg (Jan 17, 6:20 AM)
Low21 °F (Jan 24, 4:20 AM)54% (Jan 13, 12:50 PM)29.47 "Hg (Jan 15, 3:20 PM)
Average34 °F85%29.95 "Hg
* Reported Jan 13 9:20 AM — Jan 28 9:50 AM, Paderborn, Weather by CustomWeather, © 2014

Note: Actual official high and low records may vary slightly from our data, if they occured in-between our weather recording intervals... More about our weather records

Advertising

Paderborn weather history for previous 24 hours

 ConditionsComfort  
Time TempWeatherWind HumidityBarometerVisibility
9:50 AM
Jan 28
37 °FBroken clouds.16 mph87%29.86 "HgN/A
9:20 AM36 °FLight rain. Partly sunny.16 mph93%29.89 "HgN/A
8:50 AM36 °FPartly sunny.16 mph93%29.92 "HgN/A
8:20 AM36 °FDrizzle. Partly sunny.17 mph93%29.92 "HgN/A
7:50 AM36 °FPassing clouds.15 mph93%29.95 "HgN/A
7:20 AM36 °FPassing clouds.13 mph93%29.95 "HgN/A
6:50 AM36 °FPassing clouds.13 mph93%29.95 "HgN/A
6:20 AM36 °FPassing clouds.10 mph93%29.98 "HgN/A
5:50 AM36 °FPassing clouds.9 mph93%29.98 "HgN/A
5:20 AM36 °FPassing clouds.10 mph100%30.01 "HgN/A
4:50 AM36 °FPassing clouds.12 mph100%30.01 "HgN/A
4:20 AM36 °FPassing clouds.9 mph100%30.04 "HgN/A
3:50 AM36 °FPartly cloudy.9 mph100%30.07 "Hg5 mi
3:20 AM36 °FPartly cloudy.10 mph100%30.07 "Hg4 mi
2:50 AM36 °FPassing clouds.8 mph100%30.07 "Hg4 mi
2:20 AM36 °FPassing clouds.7 mph100%30.09 "Hg4 mi
1:50 AM36 °FFog.8 mph100%30.09 "Hg3 mi
1:20 AM36 °FFog.7 mph100%30.09 "Hg3 mi
12:50 AM36 °FFog.8 mph100%30.09 "Hg3 mi
12:20 AM36 °FLight rain. Fog.7 mph100%30.09 "Hg3 mi
11:50 PM
Jan 27
37 °FLight rain. Low clouds.7 mph93%30.12 "Hg4 mi
11:20 PM37 °FLight rain. Low clouds.8 mph93%30.12 "Hg4 mi
10:50 PM37 °FLight rain. Low clouds.8 mph93%30.12 "Hg4 mi
10:20 PM36 °FLight rain. Low clouds.8 mph100%30.12 "HgN/A
9:50 PM36 °FLight rain. Passing clouds.6 mph100%30.12 "HgN/A
9:20 PM36 °FLight rain. Passing clouds.6 mph100%30.12 "HgN/A
8:50 PM36 °FLight rain. Partly cloudy.7 mph100%30.12 "HgN/A
8:20 PM36 °FLight rain. Passing clouds.6 mph100%30.12 "HgN/A
7:50 PM36 °FLight rain. Partly cloudy.6 mph100%30.12 "HgN/A
7:20 PM36 °FLight rain. Passing clouds.6 mph100%30.12 "HgN/A
6:50 PM37 °FLight rain. Partly cloudy.7 mph93%30.12 "HgN/A
6:20 PM37 °FPassing clouds.6 mph93%30.12 "HgN/A
5:50 PM36 °FPartly cloudy.6 mph100%30.12 "HgN/A
5:20 PM36 °FPassing clouds.5 mph100%30.12 "Hg6 mi
4:50 PM34 °FLight rain. Broken clouds.7 mph100%30.12 "HgN/A
4:20 PM34 °FPartly sunny.5 mph100%30.12 "HgN/A
3:50 PM36 °FBroken clouds.7 mph100%30.09 "HgN/A
3:20 PM37 °FLight rain. Partly sunny.10 mph93%30.09 "Hg6 mi
2:50 PM37 °FPartly sunny.8 mph100%30.09 "Hg6 mi
2:20 PM37 °FPartly sunny.9 mph100%30.09 "Hg6 mi
1:50 PM37 °FPartly sunny.10 mph100%30.09 "Hg6 mi
1:20 PM37 °FPartly sunny.9 mph93%30.09 "Hg6 mi
12:50 PM37 °FPartly sunny.9 mph93%30.12 "Hg6 mi
12:20 PM36 °FLight rain. Partly sunny.9 mph100%30.09 "HgN/A
11:50 AM36 °FLight rain. Partly sunny.9 mph100%30.12 "HgN/A
11:20 AM36 °FPartly sunny.7 mph93%30.12 "Hg6 mi
10:50 AM36 °FPartly sunny.9 mph93%30.12 "Hg6 mi
10:20 AM36 °FPartly sunny.9 mph93%30.12 "HgN/A
Weather by CustomWeather, © 2014

See weather overviewHow to use our weather pages